DW0148 Weather Reports


Display with metric or nautical units.
time (UTC)temp
F
wind
direction
speed
MPH
gust
MPH
rain 1hr
in
rain 24hr
in
rain mn
in
humidity
%
barometer
mb
20170524061052 61 228 1.0 3.0 0.00 1.81 0.00 96 1004.1
20170524060552 61 208 0.0 2.0 0.00 1.81 0.00 96 1004.1
20170524060050 61 208 0.0 2.0 0.00 1.81 0.00 96 1004.4
20170524055549 61 204 1.0 3.0 0.00 1.81 0.00 96 1004.4
20170524055048 61 172 1.0 3.0 0.00 1.81 0.00 96 1004.4
20170524054547 61 21 0.0 1.0 0.00 1.81 0.00 96 1004.4
20170524054046 61 22 0.0 1.0 0.00 1.81 0.00 96 1004.7
20170524053545 61 22 1.0 1.0 0.00 1.81 0.00 96 1004.7
20170524053044 61 20 0.0 1.0 0.00 1.81 0.00 96 1004.4
20170524052543 61 20 0.0 1.0 0.00 1.81 0.00 96 1004.4
20170524052041 61 20 0.0 1.0 0.00 1.82 0.00 96 1004.4
20170524051540 61 21 1.0 1.0 0.00 1.82 0.00 96 1004.7
20170524051039 61 22 1.0 1.0 0.00 1.82 0.00 96 1004.7
20170524050534 61 39 0.0 1.0 0.00 1.82 0.00 96 1004.7
20170524050032 61 39 0.0 2.0 0.00 1.82 0.00 96 1004.7
20170524045531 61 40 0.0 2.0 0.00 1.82 0.00 96 1004.7
20170524045027 61 40 1.0 3.0 0.00 1.82 0.00 96 1004.7
20170524044516 61 39 1.0 3.0 0.00 1.82 0.00 96 1005.1
20170524044012 61 308 1.0 1.0 0.00 1.82 0.00 96 1005.1
20170524043510 61 257 0.0 0.0 0.00 1.82 0.00 96 1005.1
20170524043007 61 257 0.0 1.0 0.00 1.82 0.00 96 1005.1
20170524042503 61 257 0.0 1.0 0.00 1.82 0.00 96 1005.1
20170524042002 61 257 0.0 1.0 0.00 1.82 0.00 96 1005.1
20170524041451 61 257 0.0 1.0 0.00 1.82 0.00 96 1005.1
20170524040948 61 257 0.0 0.0 0.00 1.82 0.00 95 1004.7
20170524040446 61 257 0.0 0.0 0.00 1.82 0.00 95 1004.4
20170524035942 61 257 0.0 0.0 0.00 1.82 1.82 95 1004.7
20170524035432 61 257 0.0 0.0 0.00 1.82 1.82 95 1004.7
20170524034927 61 257 0.0 0.0 0.00 1.82 1.82 95 1005.1
20170524034418 61 257 0.0 0.0 0.00 1.82 1.82 95 1005.1
20170524033915 62 257 0.0 1.0 0.00 1.82 1.82 95 1005.1
20170524033404 62 257 0.0 1.0 0.00 1.82 1.82 95 1005.1
20170524032857 62 257 0.0 1.0 0.00 1.82 1.82 95 1005.1
20170524032356 62 271 1.0 3.0 0.00 1.82 1.82 95 1005.1
20170524031838 62 16 1.0 3.0 0.00 1.82 1.82 95 1005.1
20170524031300 62 56 1.0 5.0 0.00 1.82 1.82 95 1005.4
20170524030759 63 46 2.0 5.0 0.01 1.82 1.82 95 1005.4
20170524030257 63 49 2.0 4.0 0.04 1.82 1.82 95 1005.4
20170524025756 63 99 0.0 2.0 0.16 1.82 1.82 95 1005.4
20170524025255 63 68 0.0 3.0 0.26 1.82 1.82 95 1005.4
20170524024754 63 51 1.0 3.0 0.31 1.82 1.82 95 1005.4
20170524024252 63 200 1.0 4.0 0.52 1.82 1.82 95 1005.4
20170524023750 63 224 2.0 4.0 0.89 1.82 1.82 95 1005.4
20170524023249 63 74 0.0 2.0 1.23 1.82 1.82 95 1005.1
20170524022748 63 118 0.0 2.0 1.48 1.82 1.82 95 1005.4
20170524022247 63 155 0.0 3.0 1.54 1.82 1.82 95 1005.4
20170524021746 63 152 1.0 3.0 1.56 1.82 1.82 95 1004.7
20170524021245 63 220 1.0 3.0 1.56 1.82 1.82 95 1004.1
20170524020744 64 22 1.0 3.0 1.55 1.81 1.81 94 1004.1
20170524020242 64 354 1.0 3.0 1.52 1.77 1.77 94 1004.1
20170524015741 64 110 1.0 14.0 1.41 1.66 1.66 93 1004.1
20170524015240 65 167 1.0 14.0 1.30 1.55 1.55 93 1004.7
20170524014738 66 269 0.0 16.0 1.24 1.49 1.49 92 1004.7
20170524014231 67 18 4.0 16.0 1.02 1.27 1.27 93 1004.7
20170524013723 67 167 0.0 3.0 0.63 0.88 0.88 93 1005.1
20170524013221 68 244 1.0 3.0 0.32 0.57 0.57 92 1004.7
20170524012720 68 89 1.0 4.0 0.07 0.33 0.33 93 1004.1
20170524012218 68 12 2.0 4.0 0.02 0.27 0.27 92 1003.4
20170524011717 68 1 1.0 3.0 0.00 0.25 0.25 92 1003.0
20170524011216 68 8 1.0 1.0 0.00 0.25 0.25 91 1003.0
20170524010715 68 43 1.0 1.0 0.00 0.25 0.25 92 1003.4
20170524010214 68 46 0.0 1.0 0.00 0.25 0.25 92 1003.7
20170524005712 68 47 0.0 1.0 0.00 0.25 0.25 92 1003.7
20170524005212 69 46 0.0 0.0 0.00 0.25 0.25 91 1003.7
20170524004711 69 46 0.0 0.0 0.00 0.25 0.25 91 1004.1
20170524004210 69 46 0.0 1.0 0.00 0.25 0.25 90 1004.1
20170524003709 69 46 0.0 1.0 0.00 0.25 0.25 90 1004.1
20170524003207 69 45 0.0 1.0 0.00 0.25 0.25 90 1004.1
20170524002707 69 45 1.0 1.0 0.00 0.25 0.25 90 1004.1
20170524002204 70 43 0.0 1.0 0.00 0.25 0.25 90 1004.1
20170524001703 70 43 0.0 1.0 0.00 0.25 0.25 89 1004.1
20170524001202 70 43 0.0 1.0 0.00 0.25 0.25 89 1004.1
20170524000701 71 43 1.0 1.0 0.00 0.25 0.25 88 1003.7
20170524000200 71 42 1.0 1.0 0.00 0.25 0.25 87 1003.7
20170523235659 71 36 0.0 0.0 0.00 0.25 0.25 86 1003.7
20170523235157 71 35 0.0 1.0 0.00 0.25 0.25 86 1003.7
20170523234656 71 35 0.0 1.0 0.00 0.25 0.25 84 1004.1
20170523234155 71 36 0.0 1.0 0.00 0.25 0.25 84 1003.7
20170523233654 72 35 0.0 1.0 0.00 0.25 0.25 83 1003.7
20170523233153 72 35 1.0 1.0 0.00 0.25 0.25 83 1003.7
20170523232652 72 35 0.0 2.0 0.00 0.25 0.25 80 1003.7
20170523232150 72 36 0.0 2.0 0.00 0.25 0.25 82 1003.7
20170523231649 72 35 0.0 3.0 0.00 0.25 0.25 77 1003.7
20170523231148 73 34 2.0 3.0 0.00 0.25 0.25 79 1003.7
20170523230647 73 342 0.0 3.0 0.00 0.25 0.25 81 1003.7
20170523230146 73 341 2.0 3.0 0.00 0.25 0.25 76 1003.7
20170523225644 73 96 0.0 1.0 0.00 0.25 0.25 81 1003.7
20170523225143 72 149 1.0 3.0 0.00 0.25 0.25 78 1004.1
20170523224642 72 117 0.0 3.0 0.00 0.25 0.25 80 1004.1
20170523224141 72 117 1.0 4.0 0.00 0.25 0.25 79 1004.1
20170523223640 72 141 2.0 4.0 0.00 0.25 0.25 77 1004.1
20170523223139 72 31 1.0 2.0 0.00 0.25 0.25 78 1004.1
20170523222638 72 325 1.0 2.0 0.00 0.25 0.25 77 1004.1
20170523222138 73 323 0.0 3.0 0.00 0.25 0.25 77 1004.1
20170523221636 73 300 1.0 3.0 0.00 0.25 0.25 78 1004.4
20170523221135 73 172 0.0 3.0 0.00 0.25 0.25 77 1004.4
20170523220633 73 293 0.0 3.0 0.00 0.25 0.25 80 1004.7
20170523220132 74 214 1.0 3.0 0.00 0.25 0.25 75 1004.7
20170523215631 74 147 2.0 3.0 0.00 0.25 0.25 77 1004.7
20170523215129 74 217 1.0 3.0 0.00 0.25 0.25 75 1004.7
20170523214627 73 150 0.0 4.0 0.00 0.25 0.25 80 1004.7
20170523214127 73 354 2.0 4.0 0.00 0.25 0.25 78 1004.7
20170523213624 73 173 1.0 3.0 0.00 0.25 0.25 80 1004.7
20170523213122 74 229 2.0 4.0 0.00 0.25 0.25 80 1004.7
20170523212621 74 295 1.0 4.0 0.00 0.25 0.25 77 1004.7
20170523212120 74 293 1.0 4.0 0.00 0.25 0.25 77 1004.7
20170523211619 73 24 1.0 4.0 0.00 0.25 0.25 79 1005.1
20170523211118 73 145 2.0 4.0 0.00 0.25 0.25 77 1005.1
20170523210617 73 162 3.0 4.0 0.00 0.25 0.25 77 1005.1
20170523210114 72 172 2.0 3.0 0.00 0.25 0.25 79 1005.1
20170523205613 72 148 1.0 2.0 0.00 0.25 0.25 79 1005.1
20170523205112 72 120 0.0 3.0 0.00 0.25 0.25 81 1005.4
20170523204610 72 118 0.0 3.0 0.00 0.25 0.25 81 1005.4
20170523204109 72 174 0.0 3.0 0.00 0.25 0.25 81 1005.4
20170523203608 71 138 1.0 3.0 0.00 0.25 0.25 82 1005.4
20170523202515 71 148 0.0 5.0 0.00 0.25 0.25 83 1005.4
20170523202013 71 152 2.0 5.0 0.00 0.25 0.25 81 1005.4
20170523201511 72 142 2.0 4.0 0.00 0.25 0.25 81 1005.8
20170523201010 72 352 1.0 6.0 0.00 0.25 0.25 82 1005.8
20170523200509 71 126 1.0 6.0 0.00 0.25 0.25 82 1005.8
20170523200005 71 154 2.0 6.0 0.00 0.25 0.25 81 1005.8
20170523195500 71 139 3.0 6.0 0.00 0.25 0.25 81 1005.8
20170523194958 71 147 3.0 6.0 0.00 0.25 0.25 81 1005.8
20170523194457 71 156 2.0 5.0 0.00 0.25 0.25 84 1005.8
20170523193955 70 179 2.0 5.0 0.01 0.25 0.25 87 1005.8
20170523193453 70 143 1.0 3.0 0.01 0.25 0.25 86 1006.1
20170523192952 70 163 1.0 3.0 0.01 0.25 0.25 89 1006.1
20170523192446 70 111 1.0 4.0 0.01 0.25 0.25 88 1006.1
20170523191944 70 142 2.0 4.0 0.01 0.25 0.25 87 1006.1
20170523191443 69 127 2.0 4.0 0.01 0.25 0.25 88 1006.1
20170523190942 69 121 1.0 5.0 0.01 0.25 0.25 90 1006.1
20170523190441 68 129 0.0 5.0 0.01 0.25 0.25 90 1006.1
20170523185940 68 325 3.0 5.0 0.01 0.25 0.25 91 1006.1
20170523185436 67 128 0.0 1.0 0.01 0.25 0.25 92 1006.4
20170523184933 66 127 0.0 3.0 0.01 0.25 0.25 93 1006.4
20170523184431 66 127 0.0 3.0 0.01 0.25 0.25 92 1006.4
20170523183930 66 5 1.0 4.0 0.00 0.24 0.24 93 1006.4
20170523183429 66 4 0.0 4.0 0.00 0.24 0.24 93 1006.4
20170523182927 66 353 1.0 3.0 0.00 0.24 0.24 93 1006.8
20170523182426 66 50 0.0 3.0 0.00 0.24 0.24 94 1006.8
20170523181924 66 62 1.0 5.0 0.00 0.24 0.24 94 1006.8
20170523181422 66 350 2.0 5.0 0.00 0.24 0.24 93 1006.8
20170523180919 65 349 2.0 3.0 0.00 0.24 0.24 94 1006.8
20170523180418 65 328 1.0 3.0 0.00 0.24 0.24 94 1007.1
20170523175916 65 346 1.0 4.0 0.00 0.24 0.24 94 1007.1
20170523175410 65 331 1.0 4.0 0.00 0.24 0.24 94 1007.1
20170523174909 65 328 2.0 4.0 0.00 0.24 0.24 94 1007.1
20170523174407 65 345 2.0 4.0 0.00 0.24 0.24 94 1007.5
20170523173906 65 350 2.0 3.0 0.00 0.24 0.24 94 1007.5
20170523173405 65 37 1.0 1.0 0.00 0.24 0.24 95 1007.5
20170523172904 65 338 0.0 3.0 0.01 0.24 0.24 95 1007.8
20170523172403 65 339 0.0 3.0 0.02 0.24 0.24 95 1007.8
20170523171902 65 339 1.0 3.0 0.05 0.24 0.24 94 1007.8
20170523171401 65 3 2.0 4.0 0.08 0.24 0.24 95 1007.8
20170523170859 65 353 2.0 4.0 0.15 0.24 0.24 95 1008.1
20170523170355 65 355 2.0 5.0 0.17 0.24 0.24 94 1008.1
20170523165853 64 336 3.0 5.0 0.18 0.24 0.24 94 1008.1
20170523165350 64 337 3.0 5.0 0.18 0.24 0.24 94 1008.1
20170523164849 64 340 3.0 5.0 0.20 0.24 0.24 95 1008.1
20170523164348 64 354 2.0 4.0 0.20 0.24 0.24 95 1008.5
20170523163847 64 353 1.0 1.0 0.22 0.24 0.24 95 1008.5
20170523163346 64 354 1.0 2.0 0.22 0.24 0.24 95 1008.5
20170523162845 64 354 0.0 2.0 0.21 0.23 0.23 95 1008.5
20170523162342 64 354 1.0 3.0 0.20 0.22 0.22 94 1008.8
20170523161841 64 352 2.0 3.0 0.17 0.19 0.19 94 1008.8
20170523161340 64 37 0.0 1.0 0.14 0.16 0.16 94 1008.8
20170523160839 64 37 0.0 1.0 0.07 0.09 0.09 93 1008.8
20170523160338 64 39 1.0 1.0 0.05 0.07 0.07 94 1008.8
20170523155836 65 39 0.0 1.0 0.04 0.06 0.06 93 1008.8
20170523155334 65 37 0.0 2.0 0.04 0.06 0.06 94 1008.8
20170523154833 65 35 0.0 2.0 0.02 0.04 0.04 93 1008.8
20170523154332 65 35 0.0 3.0 0.02 0.04 0.04 92 1008.8
20170523153831 65 297 0.0 3.0 0.00 0.02 0.02 93 1008.8
20170523153330 65 340 0.0 2.0 0.00 0.02 0.02 93 1008.8
20170523152829 65 340 1.0 3.0 0.00 0.02 0.02 92 1008.8
20170523152325 65 343 2.0 3.0 0.00 0.02 0.02 92 1008.8
20170523151824 65 45 0.0 2.0 0.00 0.02 0.02 92 1009.1
20170523151323 65 46 1.0 2.0 0.00 0.02 0.02 91 1009.1
20170523150822 65 352 1.0 2.0 0.00 0.02 0.02 91 1009.1
20170523150321 65 337 1.0 1.0 0.00 0.02 0.02 92 1009.1
20170523145820 65 340 1.0 1.0 0.00 0.02 0.02 92 1009.1
20170523145319 65 340 1.0 1.0 0.00 0.02 0.02 92 1009.1
20170523144818 65 340 1.0 2.0 0.00 0.02 0.02 92 1009.1
20170523144317 65 340 0.0 2.0 0.00 0.02 0.02 92 1009.1
20170523143816 65 340 0.0 3.0 0.00 0.02 0.02 92 1009.1
20170523143315 65 339 1.0 3.0 0.00 0.02 0.02 92 1009.1
20170523142814 64 4 0.0 3.0 0.00 0.02 0.02 93 1009.1
20170523142313 64 3 0.0 3.0 0.00 0.02 0.02 93 1009.5
20170523141812 64 3 0.0 4.0 0.00 0.02 0.02 93 1009.5
20170523141311 64 346 2.0 4.0 0.00 0.02 0.02 92 1009.5
20170523140809 64 336 2.0 4.0 0.00 0.02 0.02 92 1009.5
20170523140308 64 346 1.0 5.0 0.00 0.02 0.02 92 1009.5
20170523135807 64 334 4.0 5.0 0.00 0.02 0.02 91 1009.5
20170523135305 64 349 1.0 3.0 0.00 0.02 0.02 94 1009.5
20170523134803 64 326 2.0 3.0 0.00 0.02 0.02 93 1009.5
20170523134302 64 301 1.0 3.0 0.00 0.02 0.02 93 1009.8
20170523133802 64 2 1.0 3.0 0.00 0.02 0.02 94 1009.5
20170523133301 64 329 2.0 3.0 0.00 0.02 0.02 93 1009.8
20170523132759 64 340 1.0 1.0 0.00 0.02 0.02 95 1009.8
20170523132256 63 46 0.0 1.0 0.00 0.02 0.02 95 1009.8
20170523131755 63 47 0.0 1.0 0.00 0.02 0.02 94 1009.8
20170523131254 63 325 0.0 0.0 0.00 0.02 0.02 95 1009.8
20170523130752 63 325 0.0 3.0 0.00 0.02 0.02 95 1009.8
20170523130250 63 325 0.0 3.0 0.00 0.02 0.02 95 1010.2
20170523125749 63 325 0.0 4.0 0.00 0.02 0.02 95 1010.2
20170523125248 63 325 1.0 4.0 0.00 0.02 0.02 95 1010.2
20170523124746 63 355 1.0 1.0 0.00 0.02 0.02 96 1010.2
20170523124245 63 356 0.0 1.0 0.00 0.02 0.02 96 1010.2
20170523123743 63 60 1.0 1.0 0.00 0.02 0.02 96 1010.2
20170523123242 63 16 0.0 1.0 0.00 0.02 0.02 96 1010.5
20170523122741 63 15 0.0 1.0 0.00 0.02 0.02 96 1010.5
20170523122239 63 15 0.0 1.0 0.00 0.02 0.02 96 1010.5
20170523121738 63 15 0.0 1.0 0.00 0.02 0.02 96 1010.5
20170523121236 62 22 1.0 1.0 0.00 0.02 0.02 96 1010.2
20170523120736 62 22 0.0 0.0 0.00 0.02 0.02 96 1010.5
20170523120235 62 22 0.0 0.0 0.00 0.02 0.02 96 1010.5
20170523115733 62 22 0.0 0.0 0.00 0.02 0.02 96 1010.5
20170523115231 62 21 0.0 0.0 0.00 0.02 0.02 96 1010.5
20170523114730 62 21 0.0 0.0 0.00 0.02 0.02 96 1010.5
20170523114229 62 22 0.0 0.0 0.00 0.02 0.02 96 1010.5
20170523113727 62 22 0.0 1.0 0.00 0.02 0.02 96 1010.5
20170523113226 62 22 0.0 1.0 0.00 0.02 0.02 96 1010.2
20170523112725 62 21 0.0 1.0 0.00 0.02 0.02 96 1010.2
20170523112223 61 21 0.0 1.0 0.00 0.02 0.02 96 1009.8
20170523111722 61 21 1.0 1.0 0.00 0.02 0.02 96 1010.2
20170523111221 61 35 1.0 1.0 0.00 0.02 0.02 96 1010.2
20170523110719 61 75 0.0 1.0 0.00 0.02 0.02 96 1010.2
20170523110218 61 75 1.0 1.0 0.00 0.02 0.02 96 1009.8
20170523105717 62 75 1.0 1.0 0.00 0.02 0.02 96 1010.2
20170523105213 61 75 1.0 1.0 0.00 0.02 0.02 96 1010.2
20170523104713 61 82 0.0 1.0 0.00 0.02 0.02 96 1010.2
20170523104212 61 82 0.0 1.0 0.00 0.02 0.02 96 1010.2
20170523103710 61 82 0.0 2.0 0.00 0.02 0.02 96 1010.2
20170523103209 61 82 0.0 2.0 0.00 0.02 0.02 96 1010.2
20170523102708 61 93 1.0 3.0 0.00 0.02 0.02 96 1010.2
20170523102205 61 191 2.0 3.0 0.00 0.02 0.02 96 1010.2
20170523101703 61 49 0.0 5.0 0.00 0.02 0.02 96 1010.2
20170523101202 61 50 1.0 5.0 0.00 0.02 0.02 96 1010.2
20170523100700 62 22 1.0 1.0 0.00 0.02 0.02 96 1010.2
20170523100159 62 50 1.0 1.0 0.00 0.02 0.02 96 1010.5
20170523095658 62 50 0.0 0.0 0.00 0.02 0.02 96 1010.5
20170523095156 62 50 0.0 1.0 0.00 0.02 0.02 96 1010.5
20170523094654 62 50 0.0 2.0 0.00 0.02 0.02 96 1010.8
20170523094153 62 50 0.0 2.0 0.01 0.02 0.02 96 1010.8
20170523093652 62 50 1.0 3.0 0.01 0.02 0.02 96 1010.8
20170523093150 62 52 2.0 3.0 0.01 0.02 0.02 96 1010.8
20170523092649 62 63 0.0 1.0 0.01 0.02 0.02 96 1010.8
20170523092147 62 62 0.0 1.0 0.01 0.02 0.02 96 1011.2
20170523091646 62 62 1.0 1.0 0.01 0.02 0.02 96 1011.2
20170523091145 62 62 0.0 0.0 0.01 0.02 0.02 96 1011.5
20170523090644 62 62 0.0 0.0 0.01 0.02 0.02 96 1011.9
20170523090143 62 63 0.0 0.0 0.01 0.02 0.02 96 1011.9
20170523085642 62 63 0.0 0.0 0.01 0.02 0.02 96 1011.5
20170523085141 62 63 0.0 0.0 0.01 0.02 0.02 96 1011.9
20170523084640 62 63 0.0 0.0 0.01 0.02 0.02 96 1011.9
20170523084139 62 62 0.0 1.0 0.00 0.01 0.01 96 1011.9
20170523083637 62 62 0.0 1.0 0.00 0.01 0.01 96 1011.5
20170523083136 62 62 0.0 1.0 0.00 0.01 0.01 95 1011.9
20170523082516 62 62 0.0 1.0 0.00 0.01 0.01 95 1011.9
20170523082015 62 62 0.0 1.0 0.00 0.01 0.01 95 1011.9
20170523081513 62 63 0.0 1.0 0.00 0.01 0.01 95 1011.9
20170523081012 62 63 0.0 1.0 0.00 0.01 0.01 95 1012.2
20170523080511 62 63 0.0 1.0 0.00 0.01 0.01 95 1011.9
20170523080011 62 62 0.0 1.0 0.00 0.01 0.01 95 1011.9
20170523075509 62 62 0.0 1.0 0.00 0.01 0.01 95 1011.9
20170523075008 62 34 1.0 1.0 0.00 0.01 0.01 95 1011.9
20170523074507 62 34 0.0 0.0 0.00 0.01 0.01 95 1011.5
20170523074006 62 34 0.0 0.0 0.00 0.01 0.01 95 1011.5
20170523073505 62 34 0.0 0.0 0.00 0.01 0.01 95 1011.5
20170523073004 62 34 0.0 1.0 0.00 0.01 0.01 95 1011.5
20170523072503 62 34 0.0 1.0 0.00 0.01 0.01 95 1011.5
20170523072002 62 34 0.0 1.0 0.00 0.01 0.01 94 1011.5
20170523071500 63 6 1.0 1.0 0.00 0.01 0.01 94 1011.5
20170523070959 63 5 1.0 1.0 0.00 0.01 0.01 94 1011.5
20170523070457 63 279 0.0 1.0 0.00 0.01 0.01 94 1011.9
20170523065957 63 280 0.0 1.0 0.00 0.01 0.01 94 1011.5
20170523065455 63 279 0.0 3.0 0.00 0.02 0.01 94 1011.5
20170523064954 62 279 0.0 4.0 0.00 0.02 0.01 93 1011.9
20170523064453 62 27 1.0 5.0 0.00 0.02 0.01 94 1011.9
20170523063952 62 46 2.0 6.0 0.00 0.02 0.01 94 1011.5
20170523063451 62 40 3.0 6.0 0.00 0.02 0.01 94 1011.5
20170523062950 62 49 3.0 5.0 0.00 0.02 0.01 94 1012.2
20170523062449 62 42 3.0 5.0 0.00 0.02 0.01 95 1012.5
20170523061948 62 38 1.0 1.0 0.01 0.02 0.01 95 1012.9
20170523061446 62 128 1.0 1.0 0.01 0.02 0.01 95 1012.9